Date String (YYYY-MM-DD hh:mm:ss) UTC,Instrument flags,absolute air pressure of the measurement (hPa),sample flow rate (lpm),inlet stack bypass flow (lpm),air temperature of the measurement (°C),ambient temperature measured by the external sensor (°C),aerosol sample conditioner tube jacket temperature (°C),OPC LED temperature (°C),internal box temperature (°C),relative humidity of the measurement (%),span deviation,mass concentration of particles derived from Lorenz-Mie calculation of OPC scattering (μg/m³),mass concentration of particles derived from Lorenz-Mie calculation of OPC scattering (μg/m³),mass concentration of particles derived from Lorenz-Mie calculation of OPC scattering (μg/m³)
DateTimeUTC,F1_M11,P_M11,Q1_M11,Q2_M11,T1_M11,T2_M11,T3_M11,T4_M11,T5_M11,U1_M11,ZSPAN_M11,X2_M11,X0_M11,X1_M11
2023-06-26 18:00:00,SystemResetWarning,0830.3,5.02,000.00,030.8,025.4,000.0,038.8,030.9,32.9,0000.0,0006.39,0015.65,0005.27
2023-06-26 18:01:00,SystemResetWarning,0830.3,4.99,000.00,030.7,025.9,000.0,038.8,030.9,32.8,0000.0,0006.43,0013.92,0005.28
2023-06-26 18:02:00,SystemResetWarning,0830.3,5.00,000.00,030.7,026.3,000.0,038.8,030.9,32.1,0000.0,0006.44,0012.90,0005.28
2023-06-26 18:03:00,SystemResetWarning,0830.4,5.00,000.00,030.7,026.7,000.0,038.8,031.0,31.4,0000.6,0006.50,0013.68,0005.29
2023-06-26 18:04:00,SystemResetWarning,0830.4,5.01,000.00,030.6,027.0,000.0,038.8,031.1,31.2,0000.0,0006.54,0014.40,0005.30
2023-06-26 18:05:00,SystemResetWarning,0830.4,4.99,000.00,030.6,027.3,000.0,038.8,031.1,31.5,0000.0,0006.56,0014.50,0005.29
2023-06-26 18:06:00,SystemResetWarning,0830.4,5.00,000.00,030.6,027.5,000.0,038.8,031.2,30.9,0000.0,0006.48,0014.42,0005.29
2023-06-26 18:07:00,SystemResetWarning,0830.4,5.02,000.00,030.6,027.7,000.0,038.8,031.2,30.4,0000.6,0006.51,0015.41,0005.30
2023-06-26 18:08:00,SystemResetWarning,0830.4,4.98,000.00,030.6,026.9,000.0,038.8,031.3,31.0,0000.0,0006.52,0016.08,0005.28
2023-06-26 18:09:00,SystemResetWarning,0830.4,5.01,000.00,030.6,025.1,000.0,038.7,031.2,30.5,0002.1,0006.57,0017.13,0005.29
2023-06-26 18:10:00,SystemResetWarning,0830.4,5.00,000.00,030.6,024.5,000.0,038.7,031.2,30.8,0003.9,0006.60,0017.38,0005.31
2023-06-26 18:11:00,SystemResetWarning,0830.4,5.01,000.00,030.5,024.8,000.0,038.6,031.0,31.7,0004.1,0006.57,0017.06,0005.32
2023-06-26 18:12:00,SystemResetWarning,0830.4,5.00,000.00,030.3,025.2,000.0,038.6,030.8,32.7,0004.1,0006.50,0017.13,0005.31
2023-06-26 18:13:00,SystemResetWarning,0830.4,5.00,000.00,030.2,025.7,000.0,038.6,030.7,31.3,0003.9,0006.53,0017.59,0005.33
2023-06-26 18:14:00,SystemResetWarning,0830.4,5.00,000.00,030.2,026.1,000.0,038.6,030.8,31.8,0004.3,0006.52,0017.13,0005.34
2023-06-26 18:15:00,SystemResetWarning,0830.4,5.00,000.00,030.2,026.5,000.0,038.6,030.9,31.6,0004.2,0006.49,0016.23,0005.33
2023-06-26 18:16:00,SystemResetWarning,0830.4,5.00,000.00,030.1,026.9,000.0,038.6,030.9,31.2,0004.2,0006.50,0016.86,0005.34
2023-06-26 18:17:00,SystemResetWarning,0830.4,4.99,000.00,030.1,027.2,000.0,038.6,031.0,31.8,0004.2,0006.52,0017.91,0005.34
2023-06-26 18:18:00,SystemResetWarning,0830.4,5.00,000.00,030.1,027.4,000.0,038.6,031.0,32.5,0004.0,0006.54,0018.04,0005.36
2023-06-26 18:19:00,SystemResetWarning,0830.4,5.00,000.00,030.2,027.7,000.0,038.6,031.1,32.5,0004.1,0006.52,0018.14,0005.40
2023-06-26 18:20:00,SystemResetWarning,0830.4,5.00,000.00,030.2,027.8,000.0,038.6,031.2,31.5,0004.1,0006.53,0017.43,0005.42
2023-06-26 18:21:00,SystemResetWarning,0830.4,5.00,000.00,030.2,026.6,000.0,038.5,031.3,32.4,0004.0,0006.57,0017.14,0005.45
2023-06-26 18:22:00,SystemResetWarning,0830.4,5.00,000.00,030.2,025.5,000.0,038.4,031.3,31.6,0004.1,0006.61,0017.06,0005.47
2023-06-26 18:23:00,SystemResetWarning,0830.4,5.02,000.00,030.2,025.6,000.0,038.4,031.1,32.0,0000.1,0006.66,0016.90,0005.49
2023-06-26 18:24:00,SystemResetWarning,0830.3,4.99,000.00,030.0,025.9,000.0,038.4,030.9,31.7,0000.8,0006.65,0017.02,0005.53
2023-06-26 18:25:00,SystemResetWarning,0830.4,5.00,000.00,030.0,026.2,000.0,038.4,030.9,32.3,0000.0,0006.63,0016.73,0005.56
2023-06-26 18:26:00,SystemResetWarning,0830.5,5.01,000.00,030.0,026.6,000.0,038.4,030.9,33.7,0000.0,0006.66,0016.69,0005.60
2023-06-26 18:27:00,SystemResetWarning,0830.4,5.01,000.00,029.9,027.0,000.0,038.4,031.0,33.6,0000.0,0006.65,0016.15,0005.63
2023-06-26 18:28:00,SystemResetWarning,0830.4,4.99,000.00,030.0,027.3,000.0,038.4,031.0,33.6,0002.2,0006.72,0016.19,0005.69
2023-06-26 18:29:00,SystemResetWarning,0830.5,4.99,000.00,030.0,027.5,000.0,038.4,031.1,34.2,0002.2,0006.80,0015.49,0005.74
2023-06-26 18:30:00,SystemResetWarning,0830.6,4.99,000.00,030.0,026.5,000.0,038.3,031.2,32.9,0000.0,0006.86,0015.97,0005.79
2023-06-26 18:31:00,SystemResetWarning,0830.4,5.00,000.00,029.9,024.9,000.0,038.3,031.0,33.3,0000.0,0006.88,0016.34,0005.82
2023-06-26 18:32:00,SystemResetWarning,0830.5,5.01,000.00,029.9,024.5,000.0,038.2,031.0,33.4,0000.0,0006.86,0017.84,0005.84
2023-06-26 18:33:00,SystemResetWarning,0830.4,5.01,000.00,029.8,024.7,000.0,038.2,030.7,33.5,0000.0,0006.83,0018.43,0005.86
2023-06-26 18:34:00,SystemResetWarning,0830.5,4.98,000.00,029.7,025.2,000.0,038.2,030.6,35.1,0000.1,0006.85,0018.93,0005.90
2023-06-26 18:35:00,SystemResetWarning,0830.4,5.03,000.00,029.7,025.7,000.0,038.2,030.7,34.6,0001.0,0006.88,0018.99,0005.93
2023-06-26 18:36:00,SystemResetWarning,0830.4,4.96,000.00,029.8,026.1,000.0,038.1,030.7,34.5,0001.9,0006.90,0019.19,0005.95
2023-06-26 18:37:00,SystemResetWarning,0830.4,5.02,000.00,029.9,026.5,000.0,038.1,030.8,34.3,0001.6,0006.91,0019.37,0005.97
2023-06-26 18:38:00,SystemResetWarning,0830.4,5.00,000.00,029.9,026.9,000.0,038.2,030.8,33.9,0003.9,0006.95,0019.71,0006.01
2023-06-26 18:39:00,SystemResetWarning,0830.4,4.98,000.00,030.0,027.2,000.0,038.2,030.9,33.7,0001.1,0006.98,0019.54,0006.04
2023-06-26 18:40:00,SystemResetWarning,0830.4,5.01,000.00,030.0,027.4,000.0,038.2,031.0,33.3,0003.3,0006.99,0019.75,0006.07
2023-06-26 18:41:00,SystemResetWarning,0830.3,5.01,000.00,030.0,027.6,000.0,038.3,031.0,33.3,0001.0,0006.98,0019.76,0006.05
2023-06-26 18:42:00,SystemResetWarning,0830.4,4.97,000.00,030.1,027.7,000.0,038.3,031.1,34.4,0004.3,0006.94,0018.25,0006.02
2023-06-26 18:43:00,SystemResetWarning,0830.4,5.00,000.00,030.1,026.3,000.0,038.2,031.2,33.8,0003.8,0006.97,0018.11,0006.02
2023-06-26 18:44:00,SystemResetWarning,0830.3,5.00,000.00,030.2,024.7,000.0,038.2,031.1,34.2,0002.6,0006.95,0017.03,0006.02
2023-06-26 18:45:00,SystemResetWarning,0830.4,5.02,000.00,030.2,024.5,000.0,038.1,031.1,34.5,0004.3,0006.93,0016.29,0006.01
2023-06-26 18:46:00,SystemResetWarning,0830.3,5.01,000.00,030.1,024.8,000.0,038.2,030.8,34.8,0002.6,0006.91,0015.66,0006.02
2023-06-26 18:47:00,SystemResetWarning,0830.4,5.00,000.00,030.1,025.3,000.0,038.2,030.7,34.4,0004.1,0006.95,0017.13,0006.03
2023-06-26 18:48:00,SystemResetWarning,0830.4,4.98,000.00,030.1,025.8,000.0,038.2,030.7,35.3,0003.9,0007.03,0018.82,0006.02
2023-06-26 18:49:00,SystemResetWarning,0830.4,5.03,000.00,030.3,026.2,000.0,038.2,030.9,35.4,0003.7,0007.06,0019.16,0006.01
2023-06-26 18:50:00,SystemResetWarning,0830.4,4.99,000.00,030.5,026.6,000.0,038.3,031.1,35.9,0003.6,0007.03,0018.78,0006.00
2023-06-26 18:51:00,SystemResetWarning,0830.4,5.01,000.00,030.9,027.0,000.0,038.3,031.2,34.2,0001.0,0006.99,0018.04,0005.98
2023-06-26 18:52:00,SystemResetWarning,0830.4,4.99,000.00,031.2,027.2,000.0,038.4,031.3,33.9,0003.1,0006.98,0018.05,0005.98
2023-06-26 18:53:00,SystemResetWarning,0830.4,4.99,000.00,031.3,027.5,000.0,038.5,031.4,33.0,0001.7,0007.08,0019.17,0006.00
2023-06-26 18:54:00,SystemResetWarning,0830.4,5.00,000.00,031.4,027.7,000.0,038.6,031.4,33.1,0000.0,0007.11,0018.90,0006.00
2023-06-26 18:55:00,SystemResetWarning,0830.4,4.99,000.00,031.5,026.7,000.0,038.7,031.5,33.5,0000.0,0007.16,0019.21,0005.98
2023-06-26 18:56:00,SystemResetWarning,0830.3,5.00,000.00,031.6,025.0,000.0,038.7,031.4,32.4,0001.3,0007.17,0019.33,0005.93
2023-06-26 18:57:00,SystemResetWarning,0830.3,5.00,000.00,031.6,024.5,000.0,038.8,031.4,32.6,0002.7,0007.15,0019.46,0005.89
2023-06-26 18:58:00,SystemResetWarning,0830.3,5.01,000.00,031.5,024.7,000.0,038.8,031.1,33.1,0003.0,0007.14,0018.00,0005.83
2023-06-26 18:59:00,SystemResetWarning,0830.3,5.00,000.00,031.3,025.1,000.0,038.9,030.9,33.1,0001.9,0007.11,0017.06,0005.79
